Regional Weather Roundup
Issued by NWS

Home | Current Version | Previous Version | Graphics & Text | Print | Product List | Glossary On
Versions: 1 2 3 4 5 6 7 8 9 10 11 12 13 14 15 16 17 18 19 20 21 22 23 24 25 26 27 28 29 30 31 32 33 34 35 36 37 38 39 40 41 42 43 44 45 46 47 48 49 50
000
ASUS43 KMPX 011910
RWRMN
WEATHER ROUNDUP FOR MINNESOTA
NATIONAL WEATHER SERVICE TWIN CITIES/CHANHASSEN MN
200 PM CDT MON SEP 01 2014


NOTE: "FAIR" INDICATES FEW OR NO CLOUDS BELOW 12,000 FEET WITH NO
SIGNIFICANT WEATHER AND/OR OBSTRUCTIONS TO VISIBILITY. N/A MEANS
CURRENT SKY AND/OR WEATHER CONDITIONS ARE NOT AVAILABLE.

MNZ060>063-068>070-012000-
   Twin Cities Metro

CITY           SKY/WX    TMP DP  RH WIND       PRES   REMARKS
TWIN CITIES    PTSUNNY   76  57  51 W15       29.73S
ST PAUL        MOSUNNY   75  57  53 W10       29.73R
CRYSTAL        MOSUNNY   77  56  48 W15       29.73R
BLAINE         MOSUNNY   75  57  53 W13       29.74R
LAKEVILLE      MOSUNNY   73  59  60 W6G18     29.75R
EDEN PRAIRIE   MOSUNNY   77  57  50 W13G18    29.74R
SOUTH ST PAUL  MOSUNNY   75  55  50 W8        29.73R
LAKE ELMO      PTSUNNY   75  59  57 W13       29.74R
$$
MNZ001>005-007-008-013>017-022>024-027-028-012000-
   Northwest Minnesota

CITY           SKY/WX    TMP DP  RH WIND       PRES   REMARKS
BEMIDJI        MOSUNNY   69  51  52 NW12G18   29.72S
HALLOCK        SUNNY     73  55  53 SW9       29.68S
ROSEAU         SUNNY     72  55  56 W7        29.68F
WARROAD        MOSUNNY   72  55  56 W8        29.68S
THIEF RVR FALL MOSUNNY   72  54  53 W7        29.72S
CROOKSTON      MOSUNNY   73  52  46 NW6       29.71F
FOSSTON        SUNNY     72  48  43 NW7       29.74S
DETROIT LAKES  MOSUNNY   70  54  56 NW8       29.77S
MOORHEAD       PTSUNNY   72  57  60 W6        29.75S
PARK RAPIDS    SUNNY     72  51  47 NW15      29.74R
MAHNOMEN       FAIR      70  53  56 W9        29.74F
$$
MNZ006-009>011-018-025>026-012000-
   North Central Minnesota

CITY           SKY/WX    TMP DP  RH WIND       PRES   REMARKS
BAUDETTE       SUNNY     69  53  56 NW9       29.67S
FLAG ISLAND    SUNNY     66  54  63 NW6       29.65S
INTL FALLS     CLOUDY    64  56  75 W10G18    29.66R
WASKISH        MOSUNNY   70  55  60 W3        29.69S
BIG FORK       MOSUNNY   70  52  52 W9        29.69R
LONGVILLE      SUNNY     70  54  56 NW6       29.72R
GRAND RAPIDS   MOSUNNY   68  52  56 W14G20    29.70S
CRANE LAKE     CLOUDY    63  57  82 NW6       29.65S
ORR            CLOUDY    63  57  82 W6        29.64R
COOK           PTSUNNY   66  57  72 W13       29.66S
WALKER         FAIR      69  50  50 NW10G20   29.72S
$$
MNZ012-019>021-037-012000-
   Northeast Minnesota

CITY           SKY/WX    TMP DP  RH WIND       PRES   REMARKS
DULUTH         PTSUNNY   69  54  58 NW13      29.66S
ELY            PTSUNNY   66  57  72 W7        29.63S
HIBBING        PTSUNNY   70  51  51 W10G21    29.67S
EVELETH        PTSUNNY   64  54  68 W12       29.68R
DULUTH HARBOR  PTSUNNY   72  59  64 W16       29.66S
TWO HARBORS    PTSUNNY   66  57  72 W8        29.63S
SILVER BAY     PTSUNNY   66  61  82 W6        29.61R
GRAND MARAIS     N/A     70  59  68 MISG      29.57R
G MARAIS ARPRT CLOUDY    63  54  72 W7G21     29.61S
$$
MNZ029>031-032-039>041-046>048-054>057-064-012000-
   West Central Minnesota

CITY           SKY/WX    TMP DP  RH WIND       PRES   REMARKS
FERGUS FALLS   SUNNY     70  54  56 W9        29.76S
WHEATON        SUNNY     72  55  56 W5        29.80R
MORRIS         SUNNY     75  57  53 W9        29.79R
ALEXANDRIA     MOSUNNY   72  55  55 W10G18    29.79R
ELBOW LAKE     PTSUNNY   72  56  57 W10       29.78R
WADENA         SUNNY     72  54  53 W8        29.75S
GLENWOOD       MOSUNNY   73  55  53 W13       29.80R
APPLETON       SUNNY     75  54  46 W6        29.79S
BENSON         MOSUNNY   75  57  53 NW10      29.80R
ORTONVILLE     SUNNY     75  55  50 CALM      29.79S
MADISON        SUNNY     77  57  50 NW7       29.80S
WILLMAR        FAIR      73  55  53 W9G17     29.80S
$$
MNZ033>034-036-042>043-049>051-058-059-012000-
   Central Minnesota

CITY           SKY/WX    TMP DP  RH WIND       PRES   REMARKS
ST CLOUD       MOSUNNY   76  55  48 W16       29.75R
SAUK CENTRE    FAIR      72  52  49 W13       29.78R
PAYNESVILLE    SUNNY     71  53  51 W12       29.78R
AITKIN         MOSUNNY   73  55  53 W3        29.71R
PINE RIVER     MOSUNNY   72  54  53 NW10      29.76R
BRAINERD       SUNNY     71  51  49 W14       29.73R
STAPLES        SUNNY     73  50  43 W14       29.75R
LONG PRAIRIE   FAIR      72  52  49 W10G17    29.77S
LITTLE FALLS   MOSUNNY   72  50  46 W14       29.75R
LITCHFIELD     PTSUNNY   75  57  53 W10G16    29.78S
BUFFALO        MOSUNNY   73  54  52 W9        29.76S
MAPLE LAKE     MOSUNNY   75  59  57 NW10G17   29.77R
$$
MNZ037-044-045-052-053-012000-
   East Central Minnesota

CITY           SKY/WX    TMP DP  RH WIND       PRES   REMARKS
PRINCETON      MOSUNNY   75  55  50 W10       29.74R
MORA           SUNNY     70  52  52 NW9       29.74R
CAMBRIDGE      SUNNY     75  57  53 W10G17    29.71S
RUSH CITY      PTSUNNY   74  59  59 W8        29.72R
MOOSE LAKE     PTSUNNY   70  54  56 W9G16     29.69R
HINCKLEY       CLOUDY    72  59  64 W10G17    29.71S
CLOQUET        PTSUNNY   68  54  60 W14G21    29.68S
MCGREGOR       MOSUNNY   70  54  56 W12G17    29.72R
$$
MNZ071>073-080-081-089-090-097-098-012000-
   Southwest Minnesota

CITY           SKY/WX    TMP DP  RH WIND       PRES   REMARKS
MONTEVIDEO     SUNNY     75  61  60 W8        29.81S
GRANITE FALLS  SUNNY     73  57  56 W10       29.82S
CANBY          MOSUNNY   75  52  44 CALM      29.82S
MARSHALL       MOSUNNY   75  52  43 NW12      29.80S
REDWOOD FALLS  SUNNY     76  56  49 NW13G18   29.79S
OLIVIA         SUNNY     73  57  56 NW13G18   29.79S
PIPESTONE      MOSUNNY   73  59  60 NW10G16   29.84S
WINDOM         MOSUNNY   72  61  68 W7        29.82S
WORTHINGTON    PTSUNNY   73  61  64 W10       29.85R
JACKSON        MOSUNNY   75  57  53 W8        29.83S
TRACY          SUNNY     75  57  53 N8        29.82S
SLAYTON        MOSUNNY   72  58  63 W13G22    29.85R THUNDER
$$
MNZ065>067-074>077-082>085-091>093-012000-
   South Central Minnesota

CITY           SKY/WX    TMP DP  RH WIND       PRES   REMARKS
MANKATO        MOSUNNY   73  55  53 NW13      29.78S
NEW ULM        SUNNY     73  59  60 W12G17    29.79S
ST JAMES       SUNNY     77  57  50 W13G20    29.81S
FAIRMONT       MOSUNNY   75  55  50 W16       29.81R
GLENCOE        MOSUNNY   75  56  50 W10G16    29.77R
FARIBAULT      SUNNY     79  52  38 W12G18    29.77R
OWATONNA       MOSUNNY   75  57  53 W15       29.77S
WASECA         MOSUNNY   73  55  53 W10G18    29.80R
ALBERT LEA     SUNNY     75  59  57 W7        29.78S
$$
MNZ078>079-086>088-094>096-012000-
   Southeast Minnesota

CITY           SKY/WX    TMP DP  RH WIND       PRES   REMARKS
ROCHESTER      MOSUNNY   74  60  61 NW15G22   29.77S
RED WING       MOSUNNY   79  57  47 W9G17     29.72R
STANTON        PTSUNNY   76  58  52 W17       29.74R
DODGE CENTER   MOSUNNY   73  61  64 W10       29.76S
WINONA         MOSUNNY   73  66  78 W7        29.73F
AUSTIN         MOSUNNY   73  59  60 NW13G18   29.78R
PRESTON        MOSUNNY   73  65  77 NW6       29.77S
$$
ABBREVIATIONS USED IN REMARKS
   TC - TEMPERATURES IN CELSIUS
  WCI - WIND CHILL INDEX
   HX - HEAT INDEX
  VSB - VISIBILITY
$$


USA.gov is the U.S. government's official web portal to all federal, state and local government web resources and services.